Home   Weather   Osnabrück   Past weeks

Flag for Germany Past Weather in Osnabrück, Lower Saxony, Germany — Yesterday and Last 2 Weeks

55 °F

Drizzle. Partly sunny.

Feels Like: 52 °F
Forecast: 44 / 54 °F
Wind: 15 mph from Southwest

Location: Muenster / Osnabrueck

Current Time: Oct 28, 2016 at 2:32:57 PM

Latest Report: Oct 28, 2016 at 1:50 PM

Visibility: 4 mi

Pressure: 30.45 "Hg

Humidity: 88%

Dew Point: 52 °F

Location of OsnabrückLocation

Past Weather in Osnabrück — Graph


Osnabrück Temperature Yesterday

Maximum temperature yesterday: 54 °F (at 12:50 PM)
Minimum temperature yesterday: 48 °F (at 12:20 AM)
Average temperature yesterday: 51 °F

High & Low Weather Summary for the Past Weeks

High64 °F (Oct 16, 2:50 PM)100% (Oct 15, 7:20 PM)30.48 "Hg (Oct 15, 7:20 PM)
Low34 °F (Oct 23, 1:20 AM)56% (Oct 16, 3:20 PM)29.68 "Hg (Oct 15, 1:20 AM)
Average47 °F89%30.05 "Hg
* Reported Oct 13 1:20 PM — Oct 28 1:20 PM, Osnabrück, Weather by CustomWeather, © 2016

Note: Actual official high and low records may vary slightly from our data, if they occured in-between our weather recording intervals... More about our weather records


Osnabrück Weather History for the Previous 24 Hours

Scroll right to see more
Time TempWeatherWind HumidityBarometerVisibility
1:20 PM
Fri, Oct 28
55 °FPartly sunny.12 mph88%30.45 "Hg4 mi
12:50 PM55 °FDrizzle. Partly sunny.15 mph88%30.42 "Hg4 mi
12:20 PM55 °FPartly sunny.14 mph88%30.42 "Hg5 mi
11:50 AM55 °FPartly sunny.14 mph82%30.42 "Hg5 mi
11:20 AM55 °FPartly sunny.13 mph82%30.42 "Hg5 mi
10:50 AM55 °FPartly sunny.12 mph82%30.42 "Hg4 mi
10:20 AM55 °FPartly sunny.12 mph82%30.42 "Hg4 mi
9:50 AM54 °FPartly sunny.12 mph88%30.42 "Hg4 mi
9:20 AM54 °FPartly sunny.14 mph88%30.39 "Hg5 mi
8:50 AM54 °FPartly sunny.12 mph88%30.39 "Hg5 mi
8:20 AM54 °FPartly sunny.10 mph88%30.39 "Hg4 mi
7:50 AM54 °FPassing clouds.10 mph88%30.39 "Hg6 mi
7:20 AM54 °FPassing clouds.12 mph88%30.39 "Hg5 mi
6:50 AM54 °FPartly cloudy.10 mph88%30.39 "Hg5 mi
6:20 AM54 °FPassing clouds.12 mph88%30.39 "Hg4 mi
5:50 AM54 °FPassing clouds.12 mph88%30.39 "Hg4 mi
5:20 AM54 °FPassing clouds.13 mph88%30.39 "Hg5 mi
4:50 AM54 °FPassing clouds.12 mph88%30.39 "Hg4 mi
4:20 AM54 °FPassing clouds.9 mph88%30.39 "Hg4 mi
3:50 AM54 °FPassing clouds.10 mph88%30.42 "Hg4 mi
3:20 AM54 °FPassing clouds.9 mph88%30.42 "Hg4 mi
2:50 AM52 °FPassing clouds.9 mph88%30.42 "Hg4 mi
2:20 AM52 °FPassing clouds.10 mph94%30.42 "Hg4 mi
1:50 AM54 °FPassing clouds.9 mph88%30.42 "Hg4 mi
1:20 AM52 °FPartly cloudy.8 mph94%30.42 "Hg4 mi
12:50 AM52 °FPassing clouds.10 mph94%30.45 "Hg3 mi
12:20 AM54 °FPassing clouds.12 mph88%30.45 "Hg3 mi
11:50 PM
Thu, Oct 27
52 °FPassing clouds.10 mph94%30.45 "Hg4 mi
11:20 PM52 °FPassing clouds.7 mph88%30.45 "Hg4 mi
10:50 PM52 °FPassing clouds.7 mph88%30.45 "Hg5 mi
10:20 PM52 °FPassing clouds.7 mph88%30.45 "Hg5 mi
9:50 PM52 °FPassing clouds.8 mph88%30.45 "Hg6 mi
9:20 PM52 °FPassing clouds.8 mph88%30.45 "Hg6 mi
8:50 PM52 °FPassing clouds.8 mph88%30.45 "Hg6 mi
8:20 PM52 °FPassing clouds.8 mph88%30.45 "Hg5 mi
7:50 PM52 °FPassing clouds.6 mph88%30.45 "Hg5 mi
7:20 PM52 °FPassing clouds.7 mph88%30.45 "HgN/A
6:50 PM52 °FPassing clouds.7 mph88%30.45 "HgN/A
6:20 PM54 °FPassing clouds.8 mph82%30.45 "Hg6 mi
5:50 PM54 °FPartly sunny.8 mph88%30.45 "Hg4 mi
5:20 PM54 °FPartly sunny.7 mph88%30.48 "Hg4 mi
4:50 PM54 °FFog.7 mph88%30.48 "Hg3 mi
4:20 PM54 °FFog.7 mph88%30.48 "Hg3 mi
3:50 PM54 °FFog.10 mph88%30.48 "Hg3 mi
3:20 PM54 °FFog.12 mph88%30.48 "Hg3 mi
2:50 PM54 °FFog.9 mph88%30.45 "Hg3 mi
2:20 PM54 °FFog.9 mph88%30.48 "Hg3 mi
Weather by CustomWeather, © 2016

See weather overviewHow to use our weather pages